Flag for United Kingdom Weather past 2 weeks in Stoke-on-Trent, England, United Kingdom

Now
66 °F

Sunny.


Feels Like: 66 °F
Forecast: 36 / 62 °F
Wind: 3 mph from North

Location: Manchester Airport

Current Time: Apr 21, 2015 at 3:27:16 PM

Latest Report: Apr 21, 2015 at 2:50 PM


Visibility: 10 mi

Pressure: 30.57 "Hg

Humidity: 40%

Dew point: 41 °F

Location of Stoke-on-TrentLocation

Historic Weather in Stoke-on-Trent — Graph

°F

Stoke-on-Trent temperature yesterday

Maximum temperature yesterday: 59 °F (at 2:20 PM)
Minimum temperature yesterday: 34 °F (at 5:50 AM)
Average temperature yesterday: 47 °F

Past Weeks' High & Low Weather Summary

 TemperatureHumidityPressure
High66 °F (Apr 10, 2:20 PM)100% (Apr 6, 9:20 PM)30.66 "Hg (Apr 6, 9:20 PM)
Low32 °F (Apr 13, 6:50 AM)40% (Apr 14, 4:20 PM)29.74 "Hg (Apr 11, 3:50 AM)
Average49 °F73%30.27 "Hg
* Reported Apr 6 2:20 PM — Apr 21 2:20 PM, Stoke-on-Trent, Weather by CustomWeather, © 2015

Note: Actual official high and low records may vary slightly from our data, if they occured in-between our weather recording intervals... More about our weather records

Advertising

Stoke-on-Trent weather history for previous 24 hours

 ConditionsComfort  
Time TempWeatherWind HumidityBarometerVisibility
2:20 PM
Tue, Apr 21
64 °FPassing clouds.5 mph43%30.57 "HgN/A
1:50 PM63 °FSunny.3 mph45%30.57 "Hg10 mi
1:20 PM63 °FSunny.No wind42%30.57 "Hg10 mi
12:50 PM61 °FSunny.3 mph48%30.60 "Hg10 mi
12:20 PM61 °FSunny.5 mph48%30.60 "Hg10 mi
11:50 AM59 °FPassing clouds.5 mph48%30.60 "HgN/A
11:20 AM59 °FClear.3 mph48%30.60 "Hg6 mi
10:50 AM57 °FClear.2 mph55%30.60 "Hg6 mi
10:20 AM55 °FClear.No wind63%30.60 "Hg4 mi
9:50 AM54 °FClear.2 mph67%30.60 "Hg4 mi
9:20 AM52 °FClear.2 mph72%30.60 "Hg4 mi
8:50 AM48 °FClear.3 mph82%30.60 "Hg4 mi
8:20 AM46 °FClear.2 mph82%30.60 "Hg4 mi
7:50 AM43 °FHaze.2 mph93%30.60 "Hg3 mi
7:20 AM39 °FFog.3 mph93%30.60 "Hg2 mi
6:50 AM37 °FHaze.2 mph93%30.57 "Hg2 mi
6:20 AM34 °FHaze.3 mph100%30.57 "Hg2 mi
5:50 AM37 °FFog.No wind93%30.57 "Hg2 mi
5:20 AM37 °FClear.2 mph93%30.54 "Hg5 mi
4:20 AM36 °FClear.3 mph100%30.54 "Hg5 mi
3:50 AM36 °FClear.5 mph100%30.54 "Hg10 mi
3:20 AM37 °FClear.3 mph93%30.54 "Hg10 mi
2:50 AM41 °FClear.2 mph87%30.54 "Hg5 mi
2:20 AM39 °FClear.3 mph93%30.54 "Hg5 mi
1:50 AM39 °FClear.3 mph87%30.54 "Hg10 mi
1:20 AM41 °FClear.3 mph87%30.54 "Hg10 mi
12:50 AM45 °FClear.3 mph81%30.54 "Hg10 mi
12:20 AM43 °FClear.5 mph87%30.54 "Hg10 mi
11:50 PM
Mon, Apr 20
43 °FClear.3 mph87%30.54 "Hg10 mi
11:20 PM45 °FClear.2 mph81%30.54 "Hg10 mi
10:50 PM50 °FClear.2 mph67%30.54 "Hg10 mi
10:20 PM46 °FClear.3 mph76%30.51 "Hg10 mi
9:50 PM48 °FClear.5 mph71%30.51 "Hg10 mi
9:20 PM46 °FClear.3 mph82%30.51 "HgN/A
8:50 PM52 °FClear.No wind62%30.51 "HgN/A
8:20 PM54 °FSunny.2 mph58%30.48 "Hg10 mi
7:50 PM55 °FSunny.2 mph59%30.48 "Hg10 mi
7:20 PM55 °FSunny.5 mph59%30.48 "Hg10 mi
6:50 PM57 °FSunny.3 mph51%30.48 "Hg10 mi
6:20 PM57 °FSunny.3 mph51%30.48 "Hg10 mi
5:50 PM59 °FSunny.3 mph45%30.48 "Hg10 mi
5:20 PM59 °FSunny.3 mph48%30.48 "Hg10 mi
4:50 PM59 °FPassing clouds.6 mph48%30.45 "HgN/A
4:20 PM59 °FPassing clouds.7 mph51%30.45 "HgN/A
3:50 PM59 °FPassing clouds.6 mph48%30.45 "HgN/A
3:20 PM59 °FPassing clouds.5 mph48%30.48 "HgN/A
Weather by CustomWeather, © 2015

See weather overviewHow to use our weather pages